Powrót do katalogu

STARLINK-31590

AktywnyŁącznośćVLEO
NORAD 59198·PAYLOAD·🇺🇸 United States

Wystrzelony Mar 10, 2024 z Cape Canaveral Space Force Station

Loading…

Następne Przeloty (najbliższe 24 godziny)

TLE

ŚwieżeSource: CelesTrak SupGP

Epoka: Sep 14, 2026, 20:40 UTC

1 59198C 24045W   26257.86159722 -.00014021  00000+0 -50791-3 0  2570
2 59198  43.0024 104.5401 0001330 269.0362 277.3173 15.27581741    19

Śledź STARLINK-31590 w czasie rzeczywistym z AllMySat

Download on the App Store